Location: Frauenberg
(48.2287°N, 11.2326°E)
Time: 07:37:27
(UTC+00:00)

Daily predictions for brighter satellites

Satellite Brightness Start Highest point End
(mag) Time Altitude Azimuth Time Altitude Azimuth Time Altitude Azimuth
SL-16 R/B 2.9 19:27:06 10° SSE 19:32:04 33° ESE 19:37:04 10° NE
Cosmos 1933 3.4 19:28:40 10° S 19:32:31 54° E 19:36:24 10° NNE
Cosmos 1515 3.7 19:30:32 10° S 19:33:56 51° E 19:37:20 10° NNE
Cosmos 1538 Rocket 4.3 19:30:54 10° SSW 19:36:09 76° WNW 19:41:23 10° NNE
COSMOS 2428 4.5 19:31:08 10° WSW 19:36:25 38° NW 19:41:43 10° NNE
CZ-4C R/B 3.4 19:32:57 10° NNE 19:36:34 50° E 19:40:19 10° S
MetOp-B 4.3 19:31:47 10° SSE 19:37:03 61° ENE 19:42:20 10° N
Cosmos 2056 Rocket 4.2 19:32:39 10° NNW 19:37:51 45° ENE 19:42:58 10° SE
Lacrosse 5 1.9 19:33:29 10° NW 19:38:38 85° NE 19:43:45 10° SE
Ariane Rocket 3.9 19:37:08 10° SE 19:41:38 34° ENE 19:46:11 10° N
USA 276 1.9 19:39:43 10° WNW 19:41:51 50° N 19:44:04 10° E
Meteor 1-5 Rocket 4.4 19:36:37 10° N 19:42:33 67° ENE 19:48:18 10° SSE
IRS-1C Rocket 4.3 19:37:39 10° SSE 19:42:50 62° ENE 19:48:03 10° N
CZ-4 R/B 4.0 19:40:48 10° SW 19:43:19 17° W 19:45:51 10° NW
Cosmos 44 3.7 19:39:02 10° NNW 19:43:52 51° NE 19:48:22 10° ESE
Lacrosse 5 rocket 1.5 19:39:51 10° SW 19:44:04 57° SE 19:48:14 10° ENE
Cosmos 1812 Rocket 3.5 19:40:48 10° S 19:45:12 75° E 19:49:37 10° NNE
Cosmos 2369 Rocket 3.1 19:40:08 10° NNW 19:45:19 37° NE 19:50:28 10° ESE
ATLAS 5 CENTAUR R/B 4.0 19:43:10 10° WNW 19:47:18 24° WSW 19:52:05 10° SSW
Cosmos 2221 3.2 19:46:40 10° SSE 19:50:36 36° E 19:54:35 10° NNE
Cosmos 2344 4.2 19:42:46 10° NW 19:51:08 82° SW 20:02:46 10° SSE
Cosmos 2084 3.9 19:50:42 10° NNW 19:54:20 43° NE 19:57:45 11° ESE
Resurs 01 Rocket 3.4 19:50:36 10° SSW 19:54:33 31° W 19:58:31 10° NNW
Cosmos 2237 Rocket 3.0 19:53:14 10° SW 19:58:49 57° WNW 20:04:27 10° NNE
BREEZE-M DEB (TANK) 2.1 19:56:57 10° SW 20:00:06 47° SSE 20:02:08 10° E
USA 308 3.7 19:58:25 10° W 20:00:36 22° SW 20:02:55 11° SSE
Cosmos 1378 2.7 19:57:52 10° S 20:01:09 76° E 20:04:26 10° NNE
ATLAS 3B R/B 3.1 19:54:42 10° NW 20:02:35 85° SW 20:09:47 13° SE
BREEZE-M DEB (TANK) 3.9 19:59:48 10° SW 20:03:20 50° SSE 20:12:20 10° E
Cosmos 921 Rocket 3.9 20:01:10 10° SSE 20:05:09 33° E 20:09:10 10° NE
Aureole 3 Rocket 3.0 20:03:02 10° N 20:06:36 63° E 20:10:56 12° SSE
SPOT 5 2.9 20:02:51 10° S 20:07:33 76° WSW 20:12:03 10° NNW
GEOS 3 Rocket 3.9 20:02:37 10° NE 20:07:34 43° ESE 20:12:24 10° SSW
Cosmos 923 Rocket 4.1 20:02:17 10° SSW 20:07:36 90° WNW 20:12:59 10° NNE
USA 306 4.2 20:05:36 10° WNW 20:09:01 33° N 20:12:36 10° ENE
Landsat 4 3.6 20:08:44 15° SSE 20:11:33 63° ENE 20:15:02 10° N
ARGOS Delta rocket 4.0 20:09:57 12° SSE 20:14:49 75° ENE 20:19:43 10° N
Cosmos 1943 4.3 20:12:15 14° SE 20:15:40 24° ESE 20:20:05 10° NE
Okean O Rocket 3.8 20:13:03 10° SW 20:16:32 22° W 20:20:02 10° NW
USA 234 4.5 20:11:26 10° ENE 20:17:28 41° N 20:23:31 10° WNW
Terra 1.8 20:13:56 13° SSE 20:18:03 75° ENE 20:22:46 10° N
Cosmos 1656 Rocket 3.6 20:17:38 10° NNW 20:23:07 80° ENE 20:27:23 17° SSE
ERS-1 Rocket 3.0 20:18:56 12° SSE 20:23:34 85° WSW 20:28:38 10° NNW
Cosmos 1371 Rocket 4.1 20:18:15 10° NNW 20:23:38 83° WSW 20:28:03 15° SSE
ATLAS 2AS CENTAUR R/B 3.7 20:19:20 10° WSW 20:26:32 55° NW 20:33:29 10° NE
Cosmos 1842 Rocket 4.2 20:24:38 18° SSE 20:27:32 39° E 20:31:40 10° NNE
SPOT 3 Rocket 3.6 20:24:07 16° SSE 20:28:16 74° ENE 20:33:25 10° N
Meteor 1-14 Rocket 4.4 20:22:54 10° N 20:28:43 68° ENE 20:33:21 17° SSE
USA 59 Rocket 2.3 20:29:09 10° N 20:31:09 14° NNE 20:33:25 10° ENE
Meteor 1-11 Rocket 4.5 20:26:45 10° N 20:32:00 39° ENE 20:35:44 18° SE
USA 281 3.3 20:27:32 16° SE 20:32:54 75° ENE 20:39:30 10° NNW
Cosmos 1943 Rocket 4.0 20:30:20 10° NW 20:34:53 25° WSW 20:39:24 10° SSW
Cosmos 1743 2.6 20:35:27 10° NNW 20:39:04 77° W 20:41:25 20° S
ISS -3.1 20:37:43 10° WNW 20:40:59 52° N 20:43:46 13° E
ARIANE 5 R/B 4.4 20:38:36 13° E 20:41:03 20° ENE 20:44:11 10° NNE
USA 245 3.5 20:42:39 20° SSW 20:43:43 30° W 20:45:45 10° NW
Cosmos 2279 Rocket 4.0 20:40:22 10° N 20:46:34 69° E 20:50:55 20° SSE
Cosmos 2297 3.9 20:41:39 10° NNW 20:47:22 68° WSW 20:51:24 20° SSE
Cosmos 1634 Rocket 4.1 20:41:13 10° N 20:47:32 82° W 20:52:38 16° S
Cosmos 2112 Rocket 4.5 20:44:47 10° SSW 20:50:05 65° WNW 20:55:22 10° NNE
USA 290 4.4 20:49:00 10° NW 20:51:25 19° WSW 20:53:34 11° SSW
Cosmos 1766 Rocket 4.1 20:47:48 10° NNW 20:52:10 55° W 20:55:32 16° SSW
USA 229 DEB 4.0 20:48:39 10° NW 20:56:05 88° SW 21:01:46 22° SE
USA 229 4.0 20:48:45 10° NW 20:56:11 89° SW 21:01:53 22° SE
Cosmos 1726 1.6 20:54:30 10° N 20:57:39 69° E 20:58:35 40° SSE
Spot 2 Rocket 4.0 20:54:06 16° S 20:57:57 56° W 21:02:56 10° NNW
Meteor 2-6 Rocket 4.3 20:58:31 10° SSW 21:04:07 77° WNW 21:09:40 10° N
Cosmos 1743 Rocket 4.2 21:04:57 10° N 21:09:08 43° ENE 21:10:51 29° SE
MetOp-A 3.7 21:11:24 29° S 21:13:39 78° WSW 21:18:24 10° NNW
Sich 1 3.4 21:09:55 10° N 21:14:12 52° ENE 21:15:51 33° SE
SL-16 R/B 3.2 21:10:33 10° SW 21:16:01 47° NW 21:21:30 10° NNE
USA 276 2.8 21:13:55 10° W 21:15:14 29° W 21:15:14 29° W
Cosmos 2263 4.3 21:11:13 10° NNW 21:16:53 70° WSW 21:20:00 28° S
MOS 1 Rocket 4.1 21:13:56 19° SSW 21:17:17 50° W 21:22:23 10° NNW
Cosmos 1603 4.0 21:15:41 27° SSE 21:18:20 46° ESE 21:23:45 10° NE
Ariane Rocket 4.1 21:16:49 15° SSW 21:20:30 37° W 21:25:13 10° NNW
Cosmos 1536 2.7 21:16:58 10° N 21:20:51 82° W 21:22:15 38° S
Cosmos 1975 4.3 21:17:42 10° NNE 21:20:54 23° ENE 21:21:58 21° E
Lacrosse 5 3.5 21:17:10 10° WNW 21:21:06 23° SW 21:23:08 18° SSW
Cosmos 2180 Rocket 4.4 21:15:49 10° N 21:22:04 90° W 21:25:40 27° S
USA 267 4.1 21:17:15 10° ENE 21:22:34 26° SE 21:23:24 25° SE
Lacrosse 5 rocket 2.9 21:18:34 10° W 21:22:36 38° NNW 21:26:33 10° NE
Cosmos 1452 Rocket 3.5 21:18:59 10° NNW 21:24:15 84° WSW 21:26:45 32° SSE
Cosmos 1408 Rocket 3.6 21:19:47 10° NNW 21:24:15 79° W 21:26:12 33° S
Spot 1 4.4 21:20:42 10° N 21:24:42 58° WNW 21:27:37 18° SW
Meteor 1-27 Rocket 3.7 21:22:18 29° SSE 21:25:02 61° E 21:30:29 10° NNE
Cosmos 468 4.5 21:22:15 27° S 21:25:06 65° ESE 21:30:17 10° NNE
Okean 1 3.1 21:25:59 42° S 21:27:12 78° E 21:31:05 10° NNE
Cosmos 1340 2.9 21:25:03 10° N 21:28:21 44° ENE 21:28:49 41° E
Cosmos 2369 Rocket 2.9 21:24:10 10° NW 21:29:25 43° WSW 21:32:23 23° SSW
Cosmos 1626 4.2 21:31:50 13° ENE 21:31:50 13° ENE 21:32:51 10° ENE
USA 306 3.1 21:39:27 10° WNW 21:43:17 57° NNE 21:45:08 28° E
Meteor 2-17 Rocket 4.4 21:50:28 29° S 21:53:43 89° W 21:59:48 10° N
SL-8 R/B 3.6 21:50:54 10° WSW 21:55:35 62° SSE 22:00:19 10° E
Terra 4.2 21:53:36 10° WSW 21:56:12 15° W 21:58:48 10° NW
Cosmos 1500 Rocket 4.1 21:52:21 10° NNW 21:56:32 48° W 21:57:58 34° SW
Cosmos 1328 Rocket 4.4 21:56:13 33° ESE 21:56:47 34° E 22:00:43 10° NNE
Cosmos 1943 3.6 21:53:56 12° SW 21:59:14 63° WNW 22:04:53 10° NNE
Cosmos 1733 3.3 21:56:14 10° NNW 21:59:41 53° W 22:00:07 49° SW
USA 234 3.8 21:53:28 10° E 21:59:51 56° NNE 22:06:13 10° NW
Spot 4 4.2 21:58:25 37° SE 21:59:59 55° ENE 22:04:39 10° N
ALOS 2 3.5 21:58:50 30° ESE 22:00:10 38° ENE 22:04:14 10° N
Meteor 2-4 Rocket 4.0 22:00:28 37° SSE 22:02:38 58° E 22:08:27 10° NNE
H-2A R/B 2.4 22:02:30 54° SE 22:03:22 77° ENE 22:07:34 10° NNW
Cosmos 1805 Rocket 4.2 22:01:14 10° NNW 22:05:27 48° W 22:06:48 35° SW
IRIDIUM 104 4.2 22:01:08 10° N 22:06:24 88° E 22:08:14 42° S
Lacrosse 4 Rocket 2.9 22:05:05 10° NNW 22:08:40 29° NE 22:10:34 20° E
Cosmos 1151 Rocket 3.1 22:08:37 45° SSW 22:09:52 76° W 22:14:15 10° N
Cosmos 1092 Rocket 4.0 22:10:25 37° S 22:13:03 73° E 22:19:21 10° NNE
Cosmos 1666 Rocket 3.5 22:09:12 10° N 22:13:33 73° E 22:14:23 55° SE
Cosmos 1428 Rocket 4.4 22:11:51 34° S 22:14:44 87° W 22:20:53 10° N
IRIDIUM 114 4.3 22:10:18 10° N 22:15:32 79° W 22:17:22 42° S
Cosmos 1302 Rocket 4.0 22:10:27 10° NNW 22:15:38 73° WSW 22:17:13 45° S
SAR-Lupe-3 4.4 22:15:44 74° E 22:15:52 75° ENE 22:19:24 10° N
Cosmos 1656 4.2 22:11:09 10° NNW 22:16:28 51° ENE 22:19:03 28° ESE
ARIANE 5 R/B 3.0 22:16:04 41° SW 22:17:06 51° W 22:21:20 10° NNW
Cosmos 1633 Rocket 3.1 22:12:50 10° N 22:17:15 67° ENE 22:18:08 52° SE
ISS -2.6 22:14:25 10° WNW 22:16:32 33° W 22:16:32 33° W
Cosmos 1340 Rocket 3.4 22:17:22 37° SW 22:18:31 50° WNW 22:22:27 10° N
USA 59 Rocket 0.2 22:17:29 10° NW 22:21:19 69° NE 22:22:59 39° ESE
NOSS 2-1 (E) 3.7 22:18:21 10° NW 22:22:10 70° NE 22:23:49 39° ESE
Cosmos 1992 Rocket 4.1 22:18:48 10° NNW 22:24:03 71° ENE 22:25:48 42° SE
IRIDIUM 103 4.5 22:19:29 10° N 22:24:41 66° W 22:26:30 39° SSW
CZ-2C R/B 4.3 22:21:05 10° N 22:25:29 50° WNW 22:27:22 30° SW
H-2A R/B 3.5 22:21:54 10° NE 22:25:36 25° E 22:25:53 25° E
Cosmos 1697 Rocket 4.2 22:22:07 10° NNW 22:27:05 30° NE 22:31:17 13° ESE
Cosmos 614 Rocket 3.9 22:27:45 47° S 22:29:13 74° ESE 22:34:27 10° NNE
Cosmos 1766 3.4 22:27:00 10° N 22:30:41 53° ENE 22:30:52 53° E
Cosmos 1980 Rocket 4.4 22:28:03 10° N 22:32:14 20° NE 22:36:23 10° E
NOSS 2-1 (D) 3.5 22:29:58 10° NW 22:33:48 90° ENE 22:34:55 52° SE
Cosmos 1707 4.4 22:34:21 20° E 22:34:21 20° E 22:36:55 10° NE
Cosmos 1470 4.0 22:31:14 10° NNE 22:34:30 28° ENE 22:34:54 28° E
Cosmos 1805 4.1 22:36:31 10° NNW 22:39:55 35° W 22:40:09 35° W
Spot 2 4.4 22:50:57 50° SW 22:51:47 58° W 22:56:31 10° NNW
Cosmos 1975 3.9 22:53:18 10° NNW 22:56:49 31° W 22:57:09 31° W
NOSS 3-3 (A) 3.9 22:59:40 45° SSE 23:00:55 55° ESE 23:07:05 10° NE
Lacrosse 5 rocket 3.8 22:58:21 10° WNW 23:01:49 24° N 23:05:12 10° NE
Cosmos 1626 2.9 23:04:41 36° WNW 23:04:41 36° WNW 23:07:34 10° N
Cosmos 1269 Rocket 3.9 23:04:35 50° S 23:05:59 81° ESE 23:11:17 10° NNE
USA 267 3.1 22:59:39 10° NE 23:06:13 81° SE 23:10:42 22° SW
Cosmos 1140 Rocket 4.3 23:05:26 34° SE 23:06:20 36° ESE 23:11:06 10° NE
Cosmos 1674 2.6 23:07:50 68° NE 23:07:50 68° NE 23:11:01 10° NNE
NOSS 2-1 (C) 3.9 23:05:11 10° NW 23:09:02 49° SW 23:09:07 49° SW
Cosmos 2082 Rocket 4.2 23:08:47 14° ESE 23:10:14 15° E 23:13:16 10° ENE
PSLV R/B 3.6 23:08:34 10° NNE 23:13:11 87° ESE 23:13:59 61° S
USA 306 4.2 23:13:21 10° WNW 23:15:15 24° W 23:15:15 24° W
Cosmos 1833 Rocket 2.9 23:17:10 44° SSE 23:18:29 54° ESE 23:23:57 10° NE
Cosmos 44 Rocket 4.1 23:18:08 10° NNW 23:23:00 49° NE 23:26:07 20° ESE
Cosmos 2315 Rocket 4.3 23:18:28 10° N 23:24:40 60° ENE 23:27:37 32° SE
S3M 4.0 23:19:27 10° N 23:25:53 85° E 23:28:27 39° SSE
NOSS 3-3 (C) 3.7 23:26:06 44° SSW 23:27:58 77° SE 23:34:24 10° NE
SL-24 R/B 4.5 23:25:58 10° N 23:30:20 62° WNW 23:31:32 45° SW
Cosmos 2285 Rocket 4.3 23:29:14 38° SSE 23:31:21 56° ESE 23:37:31 10° NNE
Cosmos 1515 Rocket 3.9 23:31:37 46° WSW 23:32:23 53° WNW 23:36:38 10° N
GP-B 3.1 23:30:44 10° N 23:35:09 73° E 23:35:54 58° SSE
Cosmos 1400 Rocket 4.2 23:34:57 27° ESE 23:35:26 28° E 23:38:52 10° NNE
ALOS 2 4.0 23:36:13 25° WSW 23:36:35 25° W 23:40:14 10° NW
SL-8 R/B 3.6 23:33:12 10° W 23:37:59 86° N 23:42:47 10° E
Cosmos 1869 Rocket 3.4 23:37:57 10° N 23:42:18 84° W 23:42:58 64° S
USA 234 3.2 23:38:50 26° SE 23:42:48 67° SW 23:49:21 10° WNW
Meteor 1-13 Rocket 4.3 23:41:22 43° S 23:43:28 85° ESE 23:49:26 10° NNE
Cosmos 1733 Rocket 4.0 23:41:22 10° N 23:45:27 40° ENE 23:46:57 30° ESE
Lacrosse 4 Rocket 2.2 23:43:14 10° NW 23:46:28 35° W 23:46:28 35° W
Meteor 1-23 Rocket 4.5 23:47:12 38° SSE 23:49:08 58° E 23:54:39 10° NNE
Cosmos 1346 Rocket 4.4 23:50:55 10° N 23:54:18 28° ENE 23:55:56 21° ESE
